Погода в Сырьянах

Россия / Кировская область     59°02′22″N   50°42′36″E
темп.,
°C
ветер,
м/с
пор.,
м/с
влажн.,
%
обл.,
%
осадки,
мм/ч
давл.,
гПа
погр.,
м
3 марта, ср
ср300:00−8з239746 0.0 99581
03:00−9з239730 0.0 99644
06:00−7зсз289796 0.3 996253
09:00−5сз489197 0.6 998557
12:00−4зсз4686100 0.1 998757
15:00−4з4888100 0.2 999891
18:00−7з31093100 0.1 998437
21:00−9зюз389697 0.1 999250
4 марта, чт
чт400:00−10юз379799 0.1 996211
03:00−8юз3896100 0.4 996302
06:00−9ююз3896100 0.1 993292
09:00−6ююз3694100 0.8 991347
12:00−2ю3593100 0.4 988503
15:00−1ююз1291100 0.8 987360
18:00−4ссз1197100 0.4 98821
21:00−5ссз4895100 1.3 991429
5 марта, пт
пт500:00−9сз379692 0.2 993244
03:00−12зсз369696 0.4 996263
06:00−17зсз3697100 0.1 998189
09:00−16зсз369388 0.2 1000277
12:00−12зсз358793 0.0 1001591
15:00−11зсз368797 0.1 1002736
18:00−15зсз2496100 0.1 1004111
21:00−17зсз239797 0.1 100659
6 марта, сб
сб600:00−19з239865 0.0 100834
03:00−21зюз239842 0.0 100925
06:00−20з129873 0.0 100920
09:00−16з239286 0.1 1009260
12:00−13з3585100 0.1 1009764
15:00−13зсз3584100 0.1 1008860
18:00−17зсз2295100 0.1 100820
21:00−20з129995 0.1 100920
7 марта, вс
вс700:00−22зюз129921 0.0 100820
03:00−21юз229940 0.1 100934
06:00−23юз2210098 0.0 100820
09:00−18ююз249697 0.1 1007238
12:00−13ю358783 0.0 1005491
15:00−12ююв488780 0.0 1003581
18:00−13ююв51193100 0.1 1001621
21:00−13ююв51192100 0.6 998669